Regional Weather Roundup
Issued by NWS Wakefield, VA

Current Version | Previous Version | Text Only | Print | Product List | Glossary Off
Versions: 1 2 3 4 5 6 7 8 9 10 11 12 13 14 15 16 17 18 19 20 21 22 23 24 25 26 27 28 29 30 31 32 33 34 35 36 37 38 39 40 41 42 43 44 45 46 47 48 49 50

000
ASUS41 KAKQ 121615
RWRAKQ

REGIONAL WEATHER ROUNDUP
NATIONAL WEATHER SERVICE WAKEFIELD VA
1100 AM EST TUE DEC 12 2017

Note: "fair" indicates few or no clouds below 12,000 feet with no
significant weather and/or obstructions to visibility. * = Denotes
station may not report precipitation (e.g., rain,snow,etc.),
thunder or fog.

VAZ042-051-052>054-056-121700-
NORTHERN VIRGINIA

CITY           SKY/WX    TMP DP  RH WIND       PRES   REMARKS
WASH NATIONAL  CLOUDY    45  32  60 VRB6      29.58F
DULLES         CLOUDY    40  32  73 CALM      29.58F
FORT BELVOIR   PTSUNNY   43  32  65 W5        29.58F
QUANTICO       CLOUDY    45  34  65 W6        29.60F
FREDERICKSBRG* CLOUDY    46  35  65 W8        29.59S
STAFFORD*      CLOUDY    43  33  66 CALM      29.63F
WARRENTON      CLOUDY    41  30  63 S6        29.57F
CULPEPER*      CLOUDY    41  31  67 CALM      29.59F
MANASSAS*      CLOUDY    40  32  73 S8        29.58F
LEESBURG*      CLOUDY    41  34  75 SW5       29.58F
WINCHESTER     CLOUDY    43  28  56 NW13G18   29.58S
FRONT ROYAL*   CLOUDY    45  30  57 MISG      29.57F
LURAY*         CLOUDY    45  28  53 W6        29.58F
$$

VAZ048-049-060>072-079>083-121700-
CENTRAL AND SOUTH CENTRAL VIRGINIA

CITY           SKY/WX    TMP DP  RH WIND       PRES   REMARKS
RICHMOND       CLOUDY    46  36  68 SW8       29.60F
CHESTERFIELD*  NOT AVBL
PETERSBURG*    CLOUDY    46  34  61 SW7       29.62F
HANOVER        CLOUDY    47  33  58 W14       29.61F
TAPPAHANNOCK*    N/A    N/A N/A N/A MISG        N/A
QUINTON*       FAIR      46  35  65 SW7       29.60F
CHARLOTTSVILLE CLOUDY    46  32  58 CALM      29.59F
GORDONSVILLE*  CLOUDY    47  31  54 W3        29.59F
ORANGE*        CLOUDY    41  32  70 CALM      29.59F
LOUISA*        CLOUDY    44  32  62 W7        29.64F
BUMPASS*       PTSUNNY   44  32  63 SW10G16   29.60F
FARMVILLE*     MOSUNNY   47  37  68 SW3       29.62F
CREWE*         CLOUDY    46  33  59 NW9       29.61F
FORT PICKETT*  NOT AVBL
CHASE CITY*    CLOUDY    46  34  61 W7        29.64S
CLARKSVILLE*   PTSUNNY   46  34  61 W7        29.64F
SOUTH HILL*    MOSUNNY   46  37  70 W8        29.69F
LAWRENCEVILLE* FAIR      44  35  70 SW7       29.63F
EMPORIA*       MOSUNNY   43  34  70 S7        29.65F
$$

VAZ088>098-121700-
SOUTHEAST VIRGINIA

CITY           SKY/WX    TMP DP  RH WIND       PRES   REMARKS
NORFOLK        PTSUNNY   52  37  56 SW15      29.61F
VIRGINIA BEACH PTSUNNY   53  36  52 SW15      29.61F
NORFOLK NAVAL  CLOUDY    50  36  58 SW10      29.62F
WEST POINT*    CLOUDY   N/A N/A N/A SW6       29.62F
SALUDA*        FAIR      46  36  68 SW6       29.59F
NEWPORT NEWS   CLOUDY    47  36  65 SW15      29.62F
LANGLEY AFB    CLOUDY    47  37  68 SW17      29.61F
FORT EUSTIS    CLOUDY    46  36  67 SW6       29.59F
WILLIAMSBURG*  CLOUDY    46  37  71 CALM      29.62F
HR EXEC AP*    FAIR      51  38  60 SW9       29.63F
FRANKLIN*      CLOUDY    46  36  67 SW9G16    29.64F
US460-WAKEFLD  CLOUDY    45  36  70 SW7       29.63F
$$

VAZ020-022-025-037-045-121700-
WEST CENTRAL AND SOUTHWEST VIRGINIA

CITY           SKY/WX    TMP DP  RH WIND       PRES   REMARKS
STAUNTON*      CLOUDY    44  27  52 W8        29.61F
WAYNESBORO*    CLOUDY    43  27  52 SW6       29.60F
HOT SPRINGS VA CLOUDY    32  24  72 W24G35    29.54F WCI  19
LYNCHBURG      CLOUDY    49  30  48 W7        29.63F
DANVILLE       PTSUNNY   46  36  68 W6        29.66F
SOUTH BOSTON*  CLOUDY    47  33  57 W5        29.65F
MARTINSVILLE   CLOUDY    46  31  56 NW3       29.70F
ROANOKE        CLOUDY    44  28  53 NW15G25   29.68S
BLACKSBURG     CLOUDY    39  29  66 W12G21    29.69S
DUBLIN*        CLOUDY    40  30  66 W17G24    29.69F
MARION*        LGT RAIN  37  30  78 W12G20    29.72F
HILLSVILLE*    CLOUDY    37  28  70 W15G29    29.66S
RICHLANDS*     FLURRIES  34  30  86 W14G23    29.73F WCI  25
WISE*          LGT SNOW  34  32  93 W14G22    29.78S WCI  24
ABINGDON*      CLOUDY    39  33  78 W12       29.77S
$$

MDZ021>025-VAZ099-100-121700-
SOUTHERN MARYLAND AND THE DELMARVA PENINSULA

CITY           SKY/WX    TMP DP  RH WIND       PRES   REMARKS
PATUXENT RIVER CLOUDY    46  35  65 W9        29.58F
BAY BRIDGE APT CLOUDY    43  34  70 W5        29.58F
LEONARDTOWN    CLOUDY    43  34  70 W9G17     29.60S
DOVER          CLOUDY    46  39  77 SW9       29.55F
GEORGETOWN     CLOUDY    48  36  63 SW12      29.57F
EASTON         PTSUNNY   46  32  57 W7        29.61F
CAMBRIDGE      SUNNY     46  36  66 W7        29.59F
SALISBURY      MOSUNNY   46  36  68 SW16      29.57F
OCEAN CITY     MOSUNNY   47  39  74 SW12      29.57F
WALLOPS ISLAND CLOUDY    48  38  68 W8        29.58F
ACCOMACK*      CLOUDY    48  38  69 SW9       29.59F
$$

NCZ012>017-030>032-121700-
NORTH CENTRAL AND EASTERN NORTH CAROLINA

CITY           SKY/WX    TMP DP  RH WIND       PRES   REMARKS
ROANOKE RAPIDS FAIR      45  36  70 CALM      29.66F
RALEIGH        CLOUDY    45  37  73 W7        29.69F
ELIZABETH CITY SUNNY     52  43  71 SW14      29.65F
AHOSKIE*       MOSUNNY   47  38  69 CALM      29.66F
EDENTON*       SUNNY     52  41  65 SW10      29.68F
CURRITUCK*     SUNNY     51  39  63 SW21      29.65F
KILL DEVIL HLS SUNNY     52  41  65 SW7       29.66F
MANTEO         SUNNY     55  40  58 W16       29.67F
CAPE HATTERAS  MOSUNNY   62  46  55 SW25G37   29.68F
TARBORO*       NOT AVBL
GOLDSBORO      MOSUNNY   52  38  59 SW16      29.67F
WASHINGTON     SUNNY     53  38  56 SW12      29.68F
GREENVILLE     MOSUNNY   50  37  62 SW10G16   29.71F
NEW BERN       SUNNY     55  40  56 SW10G20   29.69F
WILMINGTON     MOSUNNY   61  41  47 SW13      29.71F
$$

VAZ048-121700-
ELSEWHERE

CITY           SKY/WX    TMP DP  RH WIND       PRES   REMARKS
HARRISBURG PA  CLOUDY    42  32  67 NW8       29.53F
BALTIMORE      CLOUDY    44  33  65 W7        29.56F
ANNAPOLIS      CLOUDY    44  34  67 W5        29.57F
ANDREWS AFB    CLOUDY    44  32  61 SW8       29.56F
PHILADELPHIA   CLOUDY    45  34  65 SW10      29.56F
HENDERSON NC   CLOUDY    43  33  67 SW6       29.66F
GREENSBORO     PTSUNNY   47  33  58 NW13      29.67F
ROCKY MOUNT    CLOUDY    48  38  68 SW12      29.68F
$$

VAZ100-121700-
MARINE

STATION/POSITION TIME  TEMP    WIND        PRES    WAVE   SWELL
                       AIR SEA DIR/SP/G            HT/PER HT/PER
                 (UTC) (F)     (DEG/KT/KT) (MB)    (FT/S) (FT/S)
BRANDYWINE LGT   1542   46     260/ 16/ 18 1001.7F
CAPE MAY NJ      1542   46 45  260/ 12/ 15 1001.0F
LEWES DE         1548   47     260/  9/ 12 1000.9F
15NM E FENWICK I 1550   51 53  230/ 21/ 25 1001.1F   5/ 6   2/14
OCEAN-CITY-INLET 1542   47 48  250/  9/ 12 1001.7F
WACHAPREAGUE VA  1548   47 43  220/  8/ 12 1002.0F
THOMAS POINT MD  1600   43 48  240/  5/  5   N/A
GOOSES REEF MD   1600   44 47  250/  8/ 10 1002.3    1/ 2
COVE POINT MD    1548   44     300/  8/ 13 1002.5R
SOLOMONS ISLAND  1542   45 48  270/  8/ 12 1001.5F
BISHOPS HEAD MD  1548   45 43  230/ 14/ 15 1001.8F
PINEY POINT MD   1536          280/  8/  9   N/A
POTOMAC MD       1600   45 48  250/ 14/ 16 1000.8    2/ 3
CAMBRIDGE MD     1542   47 45              1002.6F
LEWISETTA VA     1548   44 44  250/ 11/ 16 1001.6F
RAPPAHANNOCK LGT 1536          220/ 17/ 19 1002.9F
STINGRAY PT      1600   46 48  270/ 10/ 14 1002.4    2/ 3
YORK RVR RNG VA  1548   46     250/ 15/ 17 1002.9F
YORKTOWN VA      1536   45 50  230/ 13/ 17 1002.3F
JAMESTOWN VA     1600      47  250/  6/  8   N/A     0
DOMINION TERM VA 1548   47     240/ 10/ 11 1003.3F
KIPTOPEKE VA     1536      47  240/ 14/ 18   N/A
CAPE HENRY VA    1536   50     210/ 11/ 15   N/A
WILLOUBY STN VA  1536          250/ 19/ 19 1002.6F
S CRANEY ISL VA  1536   49     240/  7/ 12 1003.2F
CAPE HENRY BUOY  1600      54                N/A     3/ 5
1ST LANDING BUOY 1600   49 50  260/ 14/ 16 1002.7    2/ 3
CAPE CHARLES BUO 1551      53                N/A     3/ 5
64NM E OF VA BCH 1550   57 61  230/ 25/ 29 1003.2F   7/ 6
DUCK PIER NC     1536   50 55  220/ 16/ 23 1003.8F
44100 DUCK FRF   1545      55                N/A     3/ 4
44056 DUCK FRF   1600      56                N/A     2/ 2
OREGON INLET NC  1536   52 46  210/ 17/ 19 1004.8F
HATTERAS NC      1536   61 56  230/ 20/ 27 1005.3F
DIAMOND SHLS NC  1600   65 74  230/ 29/ 37 1005.5
CAPE LOOKOUT NC  1600          220/ 17/ 25 1006.0F
$$



USA.gov is the U.S. government's official web portal to all federal, state and local government web resources and services.